Location: Julian California
(33.0790°N, 116.6010°W)
Time: 03:31:21
(UTC-07:00)

Cosmos 405 Rocket - Pass Details

Date: 19 May 2017
Orbit: 493 x 557 km, 81.3° (Epoch: 23 June)

Event Time Altitude Azimuth Distance (km) Brightness Sun altitude
Exits shadow 21:12:33 31° 89° (E) 894 3.5 -16.9°
Drops below altitude 10° 21:15:45 10° 30° (NNE) 1,709 5.4 -17.5°
Sets 21:18:03 0° 20° (NNE) 2,607 6.5 -17.8°
